Location: Wyoming Infrared Observatory
(41.0971°N, 105.9765°W)
Time: 15:18:55
(UTC-07:00)

Daily predictions for brighter satellites

Satellite Brightness Start Highest point End
(mag) Time Altitude Azimuth Time Altitude Azimuth Time Altitude Azimuth
Meteor 2-19 Rocket 4.5 16:56:24 10° N 17:02:29 88° E 17:08:33 10° S
USA 234 3.6 16:57:38 10° NE 17:04:03 55° SE 17:10:25 10° SSW
CZ-2C R/B 2.8 17:01:30 10° SE 17:06:19 48° ENE 17:11:17 10° N
BREEZE M DEB (TANK) 4.0 16:57:46 10° SW 17:09:33 50° SSE 17:13:09 10° ENE
IRS-1A Rocket 4.4 17:05:45 10° SSE 17:11:14 84° WSW 17:16:49 10° NNW
Cosmos 1455 Rocket 3.1 17:08:20 10° N 17:12:46 87° W 17:17:13 10° S
Nadezhda 3 Rocket 4.4 17:08:26 10° SSE 17:14:11 41° E 17:20:01 10° NNE
NOSS 3-4 (A) 4.3 17:10:25 10° NNW 17:16:47 36° NE 17:23:29 10° ESE
NOSS 3-4 (C) 4.3 17:10:31 10° NNW 17:16:52 36° NE 17:23:33 10° ESE
SL-8 R/B 4.3 17:12:39 10° W 17:17:15 45° NNW 17:21:46 10° NE
Delta 2 Rocket 4.3 17:14:14 10° WSW 17:17:26 34° S 17:20:56 10° ESE
Cosmos 1484 Rocket 3.9 17:18:06 10° ESE 17:20:58 21° ENE 17:23:50 10° NNE
NOSS 3-3 (A) 4.4 17:17:11 10° SW 17:23:19 64° NW 17:29:59 10° NNE
NOSS 3-3 (C) 4.4 17:17:16 10° SW 17:23:25 64° NW 17:30:05 10° NNE
BREEZE M DEB (TANK) 3.5 17:22:55 10° NW 17:25:55 35° NNE 17:33:25 10° E
SMAP 3.0 17:25:23 10° SSE 17:30:00 77° ENE 17:34:41 10° N
TIMED 4.5 17:26:48 10° SSW 17:31:09 75° ESE 17:35:31 10° NNE
ATLAS 2AS CENTAUR R/B 4.4 17:24:10 10° NW 17:31:37 44° WSW 17:38:33 10° S
Cosmos 1975 3.0 17:28:37 10° N 17:32:41 77° W 17:36:41 10° S
Cosmos 1809 Rocket 4.4 17:27:40 10° N 17:33:50 71° E 17:39:54 10° SSE
SL-24 DEB 4.3 17:31:00 10° NNE 17:35:41 61° E 17:40:18 10° S
Cosmos 2369 Rocket 4.0 17:35:12 10° ESE 17:36:49 11° E 17:36:50 11° E
CORIOLIS 4.1 17:31:43 10° SSE 17:37:07 80° ENE 17:42:31 10° N
Cosmos 1812 4.2 17:35:23 10° SSW 17:38:58 37° WNW 17:42:36 10° N
Tiangong 1 1.0 17:36:12 10° W 17:39:14 67° N 17:41:00 22° ENE
Okean 1-7 Rocket 3.7 17:36:48 10° S 17:41:10 54° E 17:45:32 10° NNE
ISS -1.0 17:40:35 10° NNW 17:42:17 13° N 17:43:28 12° NNE
CZ-4 R/B 4.4 17:38:29 10° SSE 17:42:36 72° ENE 17:46:46 10° N
CZ-4 R/B 2.3 17:39:32 10° S 17:43:37 55° W 17:47:40 10° NNW
Cosmos 1371 Rocket 4.3 17:39:02 10° S 17:44:11 50° ESE 17:49:17 10° NNE
Meteor 1-13 Rocket 4.2 17:39:33 10° S 17:45:13 72° E 17:51:03 10° NNE
Meteor 2-4 Rocket 4.0 17:40:28 10° SSE 17:45:24 39° E 17:50:21 10° NNE
COSMOS 2487 3.6 17:43:07 10° NNW 17:46:35 47° WSW 17:50:02 10° S
SPOT 3 Rocket 4.0 17:47:26 10° S 17:52:34 64° WSW 17:57:43 10° NNW
Cosmos 1340 4.4 17:52:27 10° SE 17:53:52 16° ESE 17:53:52 16° ESE
MSX 3.8 17:49:36 10° SSE 17:55:22 87° ENE 18:01:08 10° NNW
Cosmos 1934 Rocket 4.2 17:50:55 10° N 17:56:54 47° ENE 18:02:56 10° SSE
Cosmos 1606 Rocket 4.0 17:56:20 10° N 18:00:35 40° ENE 18:04:47 10° SSE
Cosmos 1535 Rocket 4.4 18:01:05 10° N 18:07:22 72° E 18:13:32 10° SSE
Cosmos 2297 4.4 18:03:11 10° SW 18:08:40 54° WNW 18:14:12 10° NNE
COSMO-SKYMED 1 2.4 18:05:16 12° NNE 18:09:22 74° ESE 18:13:41 10° S
Abrixas 4.2 18:08:02 10° WNW 18:10:43 31° SW 18:12:54 13° SSE
Cosmos 1666 2.6 18:09:52 10° N 18:13:43 64° E 18:17:34 10° SSE
NOSS 7 (E) 4.5 18:10:23 10° SW 18:13:51 71° NW 18:14:56 39° NNE
Cosmos 921 Rocket 3.9 18:09:48 10° SW 18:13:55 47° WNW 18:18:09 10° N
NOSS 2-1 (D) 4.1 18:10:30 10° SW 18:14:13 48° NW 18:16:47 21° NNE
Cosmos 1452 Rocket 4.4 18:09:56 10° SSE 18:14:16 28° E 18:14:16 28° E
NOSS 2-1 (C) 4.1 18:11:08 10° SW 18:14:53 49° NW 18:17:27 21° NNE
Cosmos 1190 Rocket 4.0 18:09:49 10° N 18:14:59 56° ENE 18:20:05 10° SE
Cosmos 1025 Rocket 2.9 18:11:08 10° S 18:15:31 83° E 18:19:23 13° N
Cosmos 2278 Rocket 4.2 18:12:48 10° WSW 18:17:19 24° NW 18:21:51 10° N
GEOS 3 Rocket 4.1 18:17:20 33° ENE 18:18:09 35° NE 18:22:46 10° NNW
Cosmos 2239 Rocket 4.4 18:12:55 10° N 18:19:09 90° S 18:25:17 10° S
IDEFIX/ARIANE 42P 4.3 18:19:39 10° SSW 18:24:17 33° W 18:28:57 10° NNW
Cosmos 1821 Rocket 4.1 18:25:41 10° N 18:31:46 75° W 18:37:51 10° S
Cosmos 1833 Rocket 3.7 18:27:39 10° NW 18:33:02 46° WSW 18:38:21 10° S
Cosmos 2058 Rocket 4.5 18:32:11 10° N 18:39:37 20° SSE 18:41:01 10° SSE
Meteor 1-28 Rocket 3.3 18:41:28 71° NW 18:41:44 76° WNW 18:45:30 10° SSW
Cosmos 2082 Rocket 3.9 18:37:29 10° NW 18:42:30 33° WSW 18:47:30 10° SSW
Cosmos 1605 Rocket 3.8 18:36:19 10° N 18:42:36 75° E 18:48:46 10° SSE
USA 234 3.9 18:43:35 26° NNE 18:46:59 48° NNW 18:53:12 10° WSW
Cosmos 407 Rocket 3.9 19:00:00 10° NNW 19:05:04 61° WSW 19:10:09 10° S
NOSS 3-4 (A) 4.4 19:01:08 10° NW 19:08:01 56° WSW 19:15:18 10° SSE
NOSS 3-4 (C) 4.4 19:01:14 10° NW 19:08:08 57° WSW 19:15:25 10° SSE
Tiangong 1 4.5 19:12:31 10° WNW 19:12:41 11° WNW 19:12:41 11° WNW
Cosmos 676 Rocket 4.3 19:11:30 10° NNW 19:15:57 60° WNW 19:15:57 60° WNW
Cosmos 2369 Rocket 2.5 19:14:15 10° SSW 19:18:41 57° SSW 19:18:41 57° SSW
Cosmos 1727 Rocket 4.2 19:14:43 10° SSW 19:20:54 69° W 19:23:21 38° N
CZ-3B DEB 4.3 19:24:21 10° WNW 19:30:24 36° N 19:32:17 34° NNE
